Hourly Data Report for March 28, 2018

MIRAMICHI RCS
NEW BRUNSWICK

47°00'34.000" N
65°27'54.000" W
33.00 m
8100989
71744
ACQ

Download Data

Hourly Data (March 2018)
Hourly Data Report for March 28, 2018
TIME
LST
Temp Definition
°C
Dew Point Definition
°C
Rel Hum Definition
%
Precip. Amount Definition
mm

Wind Dir Definition
10's deg

Wind Spd Definition
km/h
Visibility Definition
km
Stn Press Definition
kPa
Hmdx Definition


Wind Chill Definition


Weather Definition


00:00 -4.5 -6.6 85 0.0 3 5   102.14   -7 LegendNANA
01:00 -2.8 -6.0 79 0.0 2 5   102.03   -5 LegendNANA
02:00 -2.4 -5.8 78 0.0 36 6   101.91   -5 LegendNANA
03:00 -2.2 -6.2 74 0.0 36 5   101.82   -4 LegendNANA
04:00 -1.9 -5.3 78 0.0 1 4   101.72   -3 LegendNANA
05:00 -2.0 -4.9 81 0.0 3 6   101.61   -4 LegendNANA
06:00 -1.5 -5.1 76 0.0 35 4   101.57   -3 LegendNANA
07:00 -1.8 -3.6 87 0.0 3 5   101.47   -4 LegendNANA
08:00 -1.4 -2.2 95 0.0 3 7   101.41   -4 LegendNANA
09:00 -1.2 -1.9 95 0.0 3 9   101.28   -4 LegendNANA
10:00 -0.6 -1.5 94 1.4 1 6   101.21   -3 LegendNANA
11:00 0.1 -0.7 94 2.7 35 3   101.14     LegendNANA
12:00 0.5 -0.4 93 1.7 33 4   101.04     LegendNANA
13:00 0.7 -0.4 93 1.5 33 3   100.92     LegendNANA
14:00 0.8 -0.6 91 1.0 36 6   100.83     LegendNANA
15:00 1.3 -0.4 89 0.2 36 6   100.78     LegendNANA
16:00 0.7 -1.1 88 0.0 1 8   100.80     LegendNANA
17:00 0.6 -0.8 90 0.0 31 6   100.80     LegendNANA
18:00 0.5 -1.2 89 0.0 32 5   100.85     LegendNANA
19:00 0.5 -1.0 90 0.0 31 3   100.90     LegendNANA
20:00 0.4 -0.8 92 0.0 29 1   100.88     LegendNANA
21:00 0.3 -0.7 93 0.0 24 5   100.90     LegendNANA
22:00 0.3 -0.5 94 0.0 26 6   100.90     LegendNANA
23:00 0.3 -0.4 95 0.0 26 7   100.89     LegendNANA

Notes on Data Quality.

Legend

  • E = Estimated
  • M = Missing
  • NA = Not Available*
  • [empty] = Indicates an unobserved value
Date modified: